Regional Weather Roundup
Issued by NWS Green Bay, WI

Home | Current Version | Previous Version | Text Only | Print | Product List | Glossary On
Versions: 1 2 3 4 5 6 7 8 9 10 11 12 13 14 15 16 17 18 19 20 21 22 23 24 25 26 27 28 29 30 31 32 33 34 35 36 37 38 39 40 41 42 43 44 45 46 47 48 49 50
000
ASUS43 KGRB 230911
RWRGRB

NORTH-CENTRAL AND NORTHEAST WISCONSIN REGIONAL WEATHER ROUNDUP
NATIONAL WEATHER SERVICE GREEN BAY WI
400 AM CDT WED AUG 23 2017

WIZ005-009-010>012-018-019-231000-
NORTH CENTRAL WISCONSIN

CITY           SKY/WX    TMP DP  RH WIND       PRES   REMARKS
IRONWOOD       MOCLDY    55  53  93 W7        29.99R
MANITOWISH WTR CLOUDY    53  53 100 W5        29.99S
ARBOR VITAE    CLOUDY    57  55  93 NW6       29.99S
EAGLE RIVER    PTCLDY    52  51  99 W3        29.98R
LAND O LAKES   PTCLDY    54  52  94 CALM      29.99R
RHINELANDER    PTCLDY    50  50 100 W5        30.00R
PHILLIPS       MOCLDY    51  51 100 CALM      30.01R
ANTIGO         PTCLDY    50  50 100 W7        29.99S
TOMAHAWK         N/A     47  46  95 CALM      30.01S
MERRILL        CLEAR     52  52 100 CALM      30.01R
$$

WIZ013-073-231000-
NORTHEAST WISCONSIN

CITY           SKY/WX    TMP DP  RH WIND       PRES   REMARKS
IRON MOUNTAIN  CLEAR     54  50  86 NW8       29.92R
MARINETTE      CLEAR     55  52  89 W5        29.94R
OCONTO         CLEAR     54  51  90 W7        29.94S
$$

WIZ017-030-035>037-045-231000-
CENTRAL WISCONSIN

CITY           SKY/WX    TMP DP  RH WIND       PRES   REMARKS
MEDFORD        CLEAR     50  48  93 W6        30.02R
WAUSAU         CLEAR     54  50  86 NW6       29.99R
MOSINEE        CLEAR     52  50  93 W7        30.01S
MARSHFIELD     CLEAR     52  47  83 NW6       30.01S
WISC RAPIDS    CLEAR     53  49  86 NW8       30.02S
STEVENS POINT  CLEAR     53  49  88 W3        30.01S
WAUPACA        CLEAR     57  50  77 W6        29.99S
SHAWANO        CLEAR     56  51  83 W6        29.97R
CLINTONVILLE   CLEAR     54  48  82 NW7       29.98S
WAUTOMA        CLEAR     53  49  86 W7        30.01S
$$

WIZ038-039-048-051-231000-
FOX VALLEY

CITY           SKY/WX    TMP DP  RH WIND       PRES   REMARKS
NWS GREEN BAY  CLEAR     54  52  93 W8        29.96S
APPLETON       CLEAR     52  46  82 W10       29.96F
OSHKOSH        CLEAR     57  49  74 W7        29.98R
FOND DU LAC    CLEAR     58  48  69 W12       29.99S
$$

WIZ022-050-052-231000-
EAST CENTRAL WISCONSIN

CITY           SKY/WX    TMP DP  RH WIND       PRES   REMARKS
EPHRAIM        FAIR      57  53  85 NW7       29.91S
WASHINGTON ISL FAIR      58  54  85 NW8       29.90S
STURGEON BAY   PTCLDY    59  54  83 NW10      29.94S
MANITOWOC      CLEAR     59  50  72 W8        29.96R
SHEBOYGAN      CLEAR     57  52  83 W6        29.97R
$$

LMZ563-521-522-541>543-231000-
LAKESHORE

STATION/POSITION TIME  TEMP    WIND        PRES    VSBY  WAVE
                       AIR SEA DIR/SP/G                  HT/PER
                 (UTC) (F)     (DEG/KT/KT) (MB)    (MI)  (FT/S)
SHEBOYGAN LKSHOR 0900   60     280/  9/ 10 1014.3R
KEWAUNEE LKSHORE 0848   58     300/  3/  7 1013.1R
NORTHPORT PIER   0840   61     290/  9/ 14 1012.5R
N MID LAKE BUOY  0850   62 66  310/ 16/ 19 1012.4R         3/ 4
S GREEN BAY BUOY 0900   62 70  290/ 16/ 19 1013.6
SISTER BAY LKSHO 0903   61     310/ 17/ 20   N/A
MENOMINEE LKSHOR 0848   57     250/  8/ 11 1013.2R
$$




USA.gov is the U.S. government's official web portal to all federal, state and local government web resources and services.